Wind_Speed
8 8 7 7 6 6 5 5 5 5 6 6 6 6 7 8 8 9 9 10 11 12 12 12 12 13 13 12 12 12 12 12 11 10 9 9 9 9 11 12 13 13 15
9 8 8 7 7 7 6 6 6 6 6 6 7 7 7 8 9 9 10 11 11 12 12 13 13 14 14 14 13 13 12 12 12 12 10 10 10 10 11 12 14 15 16
10 9 8 8 8 8 7 7 7 7 7 7 8 8 9 9 10 10 11 12 12 13 13 14 14 14 14 14 14 13 13 13 13 13 12 11 11 12 13 14 15 16 17
11 10 9 9 8 8 8 8 8 8 8 9 9 10 10 11 11 11 12 13 13 14 15 15 15 15 15 15 14 14 14 14 14 13 13 13 13 13 14 14 16 17 18
11 11 10 9 9 9 9 9 9 10 10 10 10 11 11 12 12 13 14 14 15 15 16 16 17 17 16 16 16 16 16 15 15 14 15 15 15 15 16 16 17 18 18
12 11 11 10 10 11 11 10 11 11 11 11 12 12 13 13 14 14 15 16 17 17 18 18 18 18 18 18 18 18 17 17 17 16 16 17 17 17 17 19 18 20 20
12 12 12 11 11 12 12 12 12 12 12 13 13 14 14 15 15 16 17 18 18 19 19 20 20 20 20 20 19 19 18 18 18 19 19 19 19 19 20 20 21 22 23
14 14 13 13 13 13 13 13 14 14 14 14 15 15 16 16 17 18 19 20 20 20 21 21 22 22 22 21 21 20 20 20 20 21 21 21 22 22 22 23 24 25 25
16 16 15 15 15 15 15 15 15 16 16 16 17 17 18 18 19 19 20 21 22 22 22 23 23 24 23 23 22 22 22 22 22 23 24 24 24 25 25 26 26 27 28
17 17 16 16 17 17 16 16 17 17 18 18 19 19 19 20 21 21 22 23 23 24 24 24 25 25 24 24 24 24 24 24 25 26 27 27 27 28 28 28 29 30 30
18 18 18 18 18 18 18 18 19 19 20 20 20 21 21 22 23 23 24 24 24 25 25 25 26 26 26 25 25 25 26 27 27 28 29 29 30 30 30 31 32 32 32
19 19 20 19 19 19 20 20 20 21 21 22 23 23 23 24 24 25 25 26 26 26 27 27 27 27 27 27 27 27 28 29 29 30 31 32 32 33 33 33 33 34 34
21 21 21 21 21 21 22 22 22 22 23 24 24 24 25 26 26 27 27 28 28 28 29 29 29 29 28 28 29 29 30 30 31 32 32 33 33 34 35 35 35 36 36
22 22 22 22 23 23 23 23 24 24 25 25 26 26 27 28 28 28 29 30 29 29 29 30 30 29 30 30 31 31 32 33 33 34 34 34 35 35 36 37 37 38 38
24 24 23 24 24 24 24 25 25 26 26 27 28 28 29 30 30 30 31 32 32 32 32 32 32 32 32 32 33 34 35 36 36 36 36 37 37 38 38 39 39 40 41
25 25 25 26 26 26 26 26 27 27 28 29 29 29 30 31 31 31 32 33 33 33 33 33 33 33 33 34 35 36 37 38 38 38 38 39 40 40 40 41 41 42 42
26 26 27 27 27 27 27 27 28 29 29 30 31 31 32 32 32 33 33 33 34 34 35 35 36 36 36 37 37 38 39 39 39 40 40 41 42 42 43 43 44 44 44
28 28 28 28 28 28 29 29 30 30 31 32 33 33 34 34 34 35 35 35 35 36 37 37 37 38 38 39 39 40 41 41 41 42 42 43 44 44 45 45 46 46 46
29 29 29 29 30 30 31 31 32 33 33 34 35 35 36 36 36 37 37 37 38 38 39 39 39 39 40 40 41 42 42 43 43 44 44 45 45 46 47 47 48 47 47
30 30 30 31 31 32 32 33 34 34 35 36 36 36 37 37 37 38 39 39 40 40 41 41 41 41 42 42 43 43 44 44 45 45 45 46 46 47 48 48 49 49 48
31 32 32 33 33 34 34 35 35 36 36 36 37 38 38 39 39 40 41 41 41 42 42 42 42 42 43 44 44 44 44 45 45 46 46 47 47 48 48 49 49 49 48
32 33 34 34 35 36 36 37 37 37 38 38 39 39 40 40 41 42 42 42 43 42 42 42 43 43 44 44 45 45 44 45 46 47 48 48 49 49 50 49 49 48 47
34 35 35 36 36 37 37 38 39 39 39 40 40 41 42 42 42 42 43 43 43 43 43 43 43 44 44 44 45 46 46 47 48 49 49 49 50 51 50 50 49 48 47
36 36 36 36 37 37 38 38 39 39 40 40 41 41 42 42 43 43 44 44 43 43 43 44 44 44 44 45 46 47 47 48 49 50 50 51 52 51 51 49 48 48 47
36 37 37 37 38 38 39 40 40 40 41 41 41 42 42 43 43 43 44 44 44 44 44 45 45 46 45 46 47 48 49 49 50 51 52 52 52 51 50 49 48 47 47
38 38 39 39 40 40 41 41 41 42 42 42 43 44 43 43 43 44 44 45 45 45 45 46 47 47 47 48 48 49 49 49 50 51 52 52 51 50 49 48 47 46 45
Wind_Direction
233 239 246 252 257 261 267 275 286 295 299 306 314 318 323 327 329 333 338 341 343 344 343 343 342 339 336 334 331 328 326 322 317 309 301 295 291 287 283 278 274 273 271
232 241 247 249 254 260 267 274 282 288 292 298 306 312 316 321 324 328 331 334 337 338 338 338 337 336 333 331 329 326 323 320 316 312 302 293 289 287 286 281 276 276 274
237 243 245 247 253 260 265 271 277 282 287 292 299 305 310 316 320 322 324 328 331 333 332 332 331 330 330 328 326 324 322 318 315 311 307 300 290 286 283 284 281 279 277
238 244 246 250 256 262 265 268 274 278 283 288 294 300 304 308 312 315 318 321 325 328 329 329 329 326 325 324 322 321 319 316 313 308 306 304 299 292 286 287 285 283 279
242 245 247 253 259 263 267 269 273 278 282 287 293 298 300 303 305 309 313 316 319 322 324 325 325 323 322 321 320 318 316 313 310 306 303 301 299 296 293 291 287 285 284
246 247 250 255 261 264 267 271 275 278 282 286 290 294 297 300 302 305 308 311 313 316 319 320 321 321 319 318 317 315 312 309 306 304 303 301 300 297 296 294 290 288 285
246 249 253 258 262 264 267 271 275 277 281 284 288 292 295 297 300 302 305 308 310 313 315 317 318 317 316 314 312 311 309 307 305 303 301 299 299 298 297 294 292 290 288
248 251 255 259 261 263 268 272 275 278 281 284 288 291 293 295 297 300 302 304 307 309 311 313 313 314 314 312 309 307 305 304 302 302 301 299 297 297 296 295 293 290 289
251 253 256 259 262 265 269 273 275 278 281 285 288 290 292 293 296 298 300 303 305 306 307 308 309 310 310 309 308 306 304 302 301 301 300 299 297 296 295 294 293 292 290
253 254 257 260 262 265 268 272 275 278 282 287 289 290 291 292 294 296 298 301 303 304 305 306 307 308 308 307 306 305 304 302 301 302 301 300 299 298 297 295 294 292 290
255 256 259 261 263 266 269 272 275 278 282 285 288 290 291 293 295 296 298 300 302 303 304 305 305 306 306 305 304 303 303 302 301 301 301 301 300 299 299 297 296 294 293
257 258 260 262 265 268 271 273 276 279 282 285 288 289 291 293 294 296 297 298 300 302 302 303 304 304 304 304 304 304 303 302 301 300 300 299 298 298 299 299 297 297 296
258 260 262 264 267 270 272 274 276 279 282 285 286 287 290 291 293 295 297 297 298 300 301 302 303 303 303 303 303 304 304 304 304 303 302 300 299 299 299 299 298 298 297
259 262 264 266 268 270 272 274 276 279 282 284 286 288 289 291 293 295 297 297 297 298 299 300 301 302 302 303 303 304 304 305 304 303 303 302 301 301 302 301 299 298 298
260 264 266 267 269 270 272 274 277 280 282 285 286 288 289 291 292 294 296 297 297 297 297 298 299 300 301 302 303 303 304 304 304 303 302 302 301 301 301 301 300 299 299
262 266 268 269 271 272 273 276 278 281 283 286 287 289 291 293 293 295 296 297 296 296 296 297 298 298 300 301 302 302 302 303 303 303 302 301 301 301 301 301 300 300 300
264 267 270 271 272 274 275 276 278 281 283 286 288 289 290 292 293 295 296 296 296 296 296 296 297 297 299 300 301 301 302 303 302 302 302 301 301 301 301 301 300 300 300
265 268 271 272 273 275 277 278 280 282 284 286 288 288 290 291 292 294 295 295 296 296 296 296 296 296 297 299 300 301 302 302 302 302 302 302 301 301 301 301 300 300 299
267 269 271 273 274 276 278 279 280 282 284 285 287 288 289 290 291 293 294 294 295 295 295 296 296 296 297 298 299 300 301 301 301 302 302 302 302 302 302 301 301 300 299
269 271 272 273 275 277 278 280 281 282 284 285 286 287 288 289 291 292 293 294 294 295 295 295 295 295 296 298 299 300 300 301 302 302 302 302 303 303 303 303 302 301 299
270 272 273 274 276 277 279 280 281 282 283 285 285 286 287 288 290 292 293 293 294 295 294 294 294 294 295 297 298 299 300 301 302 302 303 304 304 304 304 304 303 301 300
271 272 273 275 276 277 279 280 281 283 284 285 285 285 287 288 290 291 292 293 294 294 294 294 294 294 295 297 298 300 300 301 302 302 303 304 304 304 304 303 302 301 300
272 273 274 275 277 278 279 281 282 283 284 284 285 286 287 289 290 291 292 293 293 294 294 293 294 294 296 297 298 299 300 300 302 303 303 304 304 304 304 303 302 301 300
272 274 275 276 278 279 280 281 283 283 284 285 287 287 288 289 290 291 292 293 293 293 294 294 294 295 296 297 298 299 299 300 301 302 303 304 304 304 303 302 301 301 300
274 275 276 277 278 279 281 282 283 284 285 286 288 288 289 290 291 291 292 292 293 293 294 295 295 295 295 296 297 298 299 300 301 301 303 304 304 303 302 301 300 300 299
273 274 276 277 279 280 282 283 284 285 286 287 288 289 289 290 291 291 292 292 292 292 293 295 295 295 295 295 296 297 299 300 301 301 302 303 303 303 302 302 301 300 299
Height
5874 5875 5875 5876 5876 5876 5876 5876 5876 5876 5875 5875 5874 5873 5872 5870 5869 5867 5866 5864 5862 5859 5857 5855 5853 5850 5848 5846 5844 5842 5840 5838 5837 5835 5834 5834 5833 5832 5832 5832 5832 5833 5833
5872 5873 5873 5874 5874 5874 5874 5875 5874 5874 5874 5873 5873 5872 5870 5869 5868 5866 5864 5862 5860 5858 5856 5853 5851 5849 5846 5844 5842 5840 5838 5836 5835 5833 5832 5831 5830 5830 5829 5829 5829 5829 5829
5870 5871 5871 5872 5872 5872 5872 5873 5872 5872 5872 5871 5871 5870 5869 5868 5866 5864 5863 5861 5859 5856 5854 5852 5849 5847 5844 5842 5840 5838 5836 5834 5832 5830 5829 5828 5827 5827 5826 5825 5825 5825 5825
5868 5869 5869 5870 5870 5870 5870 5870 5870 5870 5870 5869 5869 5868 5867 5865 5864 5862 5861 5859 5857 5854 5852 5849 5847 5845 5842 5840 5837 5835 5833 5831 5829 5828 5826 5825 5824 5823 5822 5821 5821 5820 5820
5865 5866 5867 5867 5867 5868 5868 5868 5868 5868 5867 5867 5866 5865 5864 5863 5862 5860 5858 5856 5854 5852 5849 5847 5844 5842 5839 5837 5834 5832 5830 5828 5826 5824 5823 5822 5820 5819 5818 5817 5816 5815 5814
5862 5863 5864 5864 5865 5865 5865 5865 5865 5865 5865 5864 5863 5862 5861 5860 5859 5857 5855 5854 5851 5849 5846 5844 5841 5839 5836 5833 5831 5829 5826 5824 5823 5821 5819 5818 5816 5815 5814 5813 5812 5811 5810
5859 5860 5861 5861 5861 5862 5862 5862 5862 5862 5861 5861 5860 5859 5858 5857 5855 5854 5852 5850 5848 5845 5843 5840 5838 5835 5832 5830 5827 5825 5822 5820 5819 5817 5815 5814 5812 5811 5809 5808 5806 5805 5804
5856 5856 5857 5858 5858 5858 5858 5858 5858 5858 5858 5857 5856 5855 5854 5853 5851 5850 5848 5846 5843 5841 5838 5836 5833 5831 5828 5825 5822 5820 5818 5816 5814 5812 5810 5809 5807 5805 5803 5802 5800 5798 5797
5852 5853 5853 5854 5854 5854 5854 5854 5854 5854 5853 5853 5852 5851 5850 5848 5847 5845 5843 5841 5839 5836 5834 5831 5828 5826 5823 5820 5817 5815 5813 5810 5808 5806 5804 5802 5800 5798 5796 5794 5793 5791 5789
5848 5848 5849 5849 5850 5850 5850 5850 5850 5849 5849 5848 5847 5846 5845 5843 5842 5840 5838 5836 5834 5831 5829 5826 5823 5820 5817 5814 5812 5809 5807 5804 5802 5800 5798 5795 5793 5790 5788 5786 5784 5782 5780
5843 5844 5844 5845 5845 5845 5845 5845 5845 5844 5844 5843 5842 5841 5840 5838 5836 5834 5832 5830 5828 5825 5822 5820 5817 5814 5811 5808 5806 5803 5800 5798 5795 5793 5790 5787 5785 5782 5779 5776 5774 5771 5769
5838 5839 5839 5839 5840 5840 5840 5839 5839 5839 5838 5837 5836 5835 5833 5832 5830 5828 5826 5824 5821 5819 5816 5813 5810 5807 5804 5801 5799 5796 5793 5790 5788 5785 5782 5779 5776 5773 5770 5767 5764 5761 5757
5833 5833 5834 5834 5834 5834 5834 5834 5833 5833 5832 5831 5830 5828 5827 5825 5823 5821 5819 5817 5814 5811 5809 5806 5803 5800 5797 5794 5791 5789 5786 5783 5780 5777 5773 5770 5767 5763 5760 5757 5753 5750 5746
5827 5827 5828 5828 5828 5828 5828 5827 5827 5826 5825 5824 5823 5821 5820 5818 5816 5814 5811 5809 5806 5803 5801 5798 5795 5792 5790 5787 5784 5781 5778 5775 5771 5768 5764 5761 5757 5753 5750 5746 5743 5740 5736
5821 5821 5821 5821 5821 5821 5821 5820 5820 5819 5818 5817 5815 5814 5812 5810 5808 5806 5803 5801 5798 5795 5793 5790 5787 5784 5782 5779 5775 5772 5769 5765 5762 5758 5754 5751 5747 5743 5740 5736 5732 5728 5724
5814 5814 5814 5814 5814 5813 5813 5813 5812 5811 5810 5809 5807 5806 5804 5802 5799 5797 5795 5792 5789 5786 5784 5781 5778 5775 5773 5770 5767 5763 5759 5755 5751 5748 5744 5740 5736 5732 5728 5724 5720 5715 5711
5806 5807 5807 5806 5806 5806 5805 5805 5804 5803 5802 5800 5799 5797 5795 5793 5791 5788 5786 5783 5780 5777 5775 5772 5769 5766 5763 5760 5757 5753 5749 5745 5741 5737 5733 5729 5725 5720 5716 5712 5707 5703 5698
5799 5799 5799 5798 5798 5797 5797 5796 5796 5794 5793 5792 5790 5788 5786 5783 5781 5779 5776 5773 5771 5768 5765 5762 5759 5756 5753 5749 5746 5742 5738 5734 5730 5726 5721 5717 5712 5708 5704 5699 5694 5689 5685
5791 5791 5790 5790 5790 5789 5788 5787 5786 5785 5784 5782 5780 5778 5776 5773 5771 5768 5766 5763 5761 5758 5755 5752 5748 5745 5742 5739 5735 5731 5727 5722 5718 5714 5709 5704 5700 5695 5690 5685 5680 5675 5670
5782 5782 5782 5781 5781 5780 5779 5778 5777 5775 5774 5772 5770 5768 5766 5763 5761 5758 5755 5753 5750 5747 5744 5741 5737 5734 5730 5727 5723 5719 5715 5710 5706 5701 5696 5692 5687 5682 5677 5671 5666 5661 5656
5773 5773 5772 5772 5771 5770 5769 5768 5767 5765 5763 5761 5759 5757 5755 5752 5750 5747 5744 5741 5738 5735 5732 5728 5725 5722 5718 5715 5711 5706 5702 5698 5693 5689 5684 5679 5674 5669 5663 5658 5652 5647 5642
5763 5763 5762 5762 5761 5760 5759 5757 5756 5754 5752 5750 5748 5746 5743 5741 5738 5735 5732 5729 5726 5723 5719 5716 5713 5709 5706 5702 5698 5694 5690 5685 5681 5676 5671 5666 5661 5655 5650 5644 5638 5633 5628
5753 5753 5752 5751 5750 5749 5748 5746 5744 5743 5741 5738 5736 5734 5731 5728 5726 5723 5720 5716 5713 5710 5706 5703 5700 5697 5693 5689 5685 5681 5677 5673 5668 5663 5658 5653 5648 5642 5636 5630 5625 5619 5614
5742 5742 5741 5740 5739 5738 5736 5734 5733 5731 5729 5726 5724 5721 5719 5716 5713 5710 5707 5703 5700 5697 5694 5690 5687 5684 5680 5676 5672 5668 5663 5659 5654 5649 5644 5639 5634 5628 5622 5616 5611 5606 5601
5731 5730 5730 5729 5728 5726 5725 5723 5721 5719 5717 5714 5712 5709 5706 5703 5700 5697 5694 5690 5687 5684 5681 5677 5674 5671 5667 5663 5659 5655 5650 5645 5640 5635 5630 5625 5619 5613 5608 5602 5597 5592 5587
5720 5719 5718 5717 5716 5714 5713 5711 5709 5707 5705 5702 5699 5697 5694 5690 5687 5684 5681 5677 5674 5671 5668 5664 5661 5657 5653 5650 5645 5641 5636 5631 5626 5621 5615 5610 5605 5599 5594 5589 5584 5579 5574